Kingsville, TX

12:17 AM CST on February 27, 2017 (GMT -0600)
Kingsville Naval Air Station

Weather History for KNQI - February, 2013

Change the Weather History Date:

Tuesday, February 19, 2013

  Actual Average Record
Temperature  
Mean Temperature 62 °F -  
Max Temperature 70 °F 71 °F 86 °F (2014)
Min Temperature 55 °F 51 °F 44 °F (2015)
Degree Days  
Heating Degree Days 2    
Growing Degree Days 12 (Base 50)    
Moisture  
Dew Point 51 °F    
Average Humidity 65    
Maximum Humidity 94    
Minimum Humidity 48    
Precipitation  
Precipitation 0.00 in - - ()
Sea Level Pressure  
Sea Level Pressure 30.09 in    
Wind  
Wind Speed 11 mph (ENE)    
Max Wind Speed 21 mph    
Max Gust Speed 26 mph    
Visibility 10 miles    
Events      
Averages and records for this station are not official NWS values.
T = Trace of Precipitation, MM = Missing Value Source: NWS Daily Summary

Daily Weather History Graph

Daily Weather History Graph

Search for Another Location

Airport or City:

Trip Planner

Search our weather history database for the weather conditions in past years. The results will help you decide how hot, cold, wet, or windy it might be!

Date:

Astronomy

Feb. 19, 2013 Rise Set
Actual Time 7:04 AM CST 6:25 PM CST
Civil Twilight 6:40 AM CST 6:49 PM CST
Nautical Twilight 6:13 AM CST 7:16 PM CST
Astronomical Twilight 5:46 AM CST 7:44 PM CST
Moon 1:14 PM CST (2/19) 2:22 AM CST (2/19)
Length of Visible Light 12h 08m
Length of Day
11h 21m
Waxing Gibbous, 67% of the Moon is Illuminated
Feb 19
Waxing Gibbous
Feb 25
Full
Mar 4
Last Quarter
Mar 11
New
Mar 19
First Quarter

Hourly Weather History & Observations

Time (CST) Temp. Dew Point Humidity Pressure Visibility Wind Dir Wind Speed Gust Speed Precip Events Conditions
12:56 AM 61.0 °F 59.0 °F 93% 29.98 in 9.0 mi South 6.9 mph - N/A   Clear
1:56 AM 60.1 °F 57.9 °F 93% 30.00 in 8.0 mi SE 3.5 mph - N/A   Clear
2:56 AM 55.9 °F 54.0 °F 93% 30.01 in 7.0 mi Calm Calm - N/A   Clear
3:26 AM 64.4 °F 62.6 °F 94% 30.05 in 8.0 mi North 9.2 mph - N/A   Mostly Cloudy
3:56 AM 66.0 °F 61.0 °F 84% 30.05 in 9.0 mi NNE 11.5 mph - N/A   Overcast
4:56 AM 62.1 °F 45.0 °F 53% 30.07 in 10.0 mi NE 16.1 mph 24.2 mph N/A   Overcast
5:56 AM 62.1 °F 43.0 °F 50% 30.10 in 10.0 mi NE 15.0 mph - N/A   Overcast
6:36 AM 60.8 °F 42.8 °F 52% 30.12 in 10.0 mi NE 13.8 mph - N/A   Mostly Cloudy
6:56 AM 61.0 °F 43.0 °F 52% 30.12 in 10.0 mi NE 12.7 mph - N/A   Mostly Cloudy
7:03 AM 60.8 °F 44.6 °F 55% 30.13 in 10.0 mi NE 10.4 mph - N/A   Overcast
7:56 AM 62.1 °F 42.1 °F 48% 30.15 in 10.0 mi NE 13.8 mph - N/A   Overcast
8:56 AM 63.0 °F 45.0 °F 52% 30.17 in 10.0 mi ENE 18.4 mph 25.3 mph N/A   Overcast
9:56 AM 63.0 °F 46.0 °F 54% 30.19 in 10.0 mi ENE 19.6 mph 25.3 mph N/A   Overcast
10:56 AM 64.0 °F 46.0 °F 52% 30.19 in 10.0 mi ENE 18.4 mph 23.0 mph N/A   Overcast
11:56 AM 66.0 °F 48.9 °F 54% 30.20 in 10.0 mi East 18.4 mph 25.3 mph N/A   Overcast
12:56 PM 69.1 °F 51.1 °F 53% 30.15 in 10.0 mi ENE 20.7 mph 26.5 mph N/A   Overcast
1:56 PM 70.0 °F 50.0 °F 49% 30.12 in 10.0 mi East 17.3 mph 24.2 mph N/A   Mostly Cloudy
2:56 PM 69.1 °F 51.1 °F 53% 30.11 in 10.0 mi East 12.7 mph 24.2 mph N/A   Overcast
3:56 PM 68.0 °F 53.1 °F 59% 30.09 in 10.0 mi ENE 15.0 mph 26.5 mph N/A   Mostly Cloudy
4:56 PM 66.9 °F 52.0 °F 59% 30.07 in 10.0 mi East 17.3 mph 25.3 mph N/A   Mostly Cloudy
6:56 PM 64.0 °F 53.1 °F 67% 30.07 in 10.0 mi East 13.8 mph 20.7 mph N/A   Mostly Cloudy
7:56 PM 63.0 °F 54.0 °F 72% 30.07 in 10.0 mi East 11.5 mph - N/A   Mostly Cloudy
8:56 PM 64.0 °F 54.0 °F 70% 30.07 in 10.0 mi East 11.5 mph - N/A   Mostly Cloudy
9:56 PM 64.0 °F 55.0 °F 73% 30.06 in 10.0 mi East 13.8 mph - N/A   Mostly Cloudy
10:56 PM 63.0 °F 55.0 °F 75% 30.03 in 10.0 mi East 13.8 mph - N/A   Mostly Cloudy
11:56 PM 63.0 °F 55.0 °F 75% 30.01 in 10.0 mi ESE 11.5 mph - N/A   Clear